Weather Roundup
Issued by NWS Chicago, IL

Home | Current Version | Previous Version | Graphics & Text | Print | Product List | Glossary On
Versions: 1 2 3 4 5 6 7 8 9 10 11 12 13 14 15 16 17 18 19 20 21 22 23 24 25 26 27 28 29 30 31 32 33 34 35 36 37 38 39 40 41 42 43 44 45 46 47 48 49 50
000
NZUS59 KLOT 232009
HRRLOT

CHICAGO AREA WEATHER ROUNDUP
NATIONAL WEATHER SERVICE CHICAGO/ROMEOVILLE IL
300 PM CDT MON OCT 23 2017

NOTE: "FAIR" INDICATES FEW OR NO CLOUDS BELOW 12,000 FEET WITH NO
SIGNIFICANT WEATHER AND/OR OBSTRUCTIONS TO VISIBILITY.

* THESE STATIONS ARE NOT UNDER NWS QUALITY CONTROL. THEY ALSO MAY NOT
  REPORT WEATHER SUCH AS PRECIPITATION OR FOG.

ILZ005-006-012>014-019>023-232100-
NORTHEAST ILLINOIS

CITY           SKY/WX    TMP DP  RH WIND       PRES   REMARKS
OHARE          CLOUDY    54  49  83 NW9       29.69F
MIDWAY         NOT AVBL
AURORA         PTSUNNY   54  50  86 NW5       29.71F
LANSING*       CLOUDY    51  49  93 CALM      29.71R
JOLIET*        CLOUDY    55  51  86 NW3       29.73R
WAUKEGAN       NOT AVBL
DUPAGE AIRPORT CLOUDY    53  50  89 W10       29.71F
WHEELING       CLOUDY    54  51  90 NW9       29.69F
KANKAKEE*      CLOUDY    51  50  97 NW5       29.72F
NORTHERLY ISL    N/A     53  48  83 W9          N/A
$$

WIZ051-052-058>065-066-070>072-232100-
SOUTHEAST WISCONSIN

CITY           SKY/WX    TMP DP  RH WIND       PRES   REMARKS
MILWAUKEE      CLOUDY    54  49  83 N8        29.69F
KENOSHA*       CLOUDY    52  48  86 NW7       29.68F
RACINE*        CLOUDY    53  50  89 NW8       29.69F
WAUKESHA       SUNNY     52  45  76 W6        29.71F
WEST BEND      CLOUDY    52  45  76 NW5       29.70F
$$

INZ001>003-010>013-019-020-232100-
NORTHWEST INDIANA

CITY           SKY/WX    TMP DP  RH WIND       PRES   REMARKS
GARY*          LGT RAIN  52  46  82 N14       29.70S
MICHIGAN CITY* NOT AVBL
RENSSELAER*    NOT AVBL
VALPARAISO     LGT RAIN  52  49  89 NW10      29.67R
$$

LMZ740>746-232100-
SOUTHERN LAKE MICHIGAN

STATION/POSITION TIME  SKY/WX   TEMP WIND        PRES    VSBY
                                AIR  DIR/SP/G
                 (UTC)          (F)  (DEG/KT/KT) (MB)    (MI)
HARRISON CRIB    1940            54  310/ 17/ 19   N/A
BURNHAM HARBOR   2000            53  300/  5/ 11   N/A
CALUMET HARBOR   1930            51  300/  4/ 10 1004.6F
BURNS HARBOR     1940            54  320/ 17/ 21 1005.1F
MICHIGAN CITY    1940            53  340/ 24/ 27   N/A
$$

ABBREVIATIONS USED IN REMARKS
   TC - TEMPERATURE IN CELSIUS
  WCI - WIND CHILL INDEX
   HX - HEAT INDEX
  VSB - VISIBILITY
$$




USA.gov is the U.S. government's official web portal to all federal, state and local government web resources and services.